Bismarck, ND

3:56 AM CDT on July 27, 2017 (GMT -0500)
Bismarck Municipal

Weather History for KBIS - December, 2012

Change the Weather History Date:

Sunday, December 30, 2012

  Actual Average Record
Temperature  
Mean Temperature 10 °F 13 °F  
Max Temperature 26 °F 23 °F 49 °F (1890)
Min Temperature -6 °F 3 °F -37 °F (1990)
Degree Days  
Heating Degree Days 55 52  
Month to date heating degree days 1471 1462  
Since 1 July heating degree days 3468 3448  
Cooling Degree Days 0 0  
Month to date cooling degree days 0 0  
Year to date cooling degree days 599 520  
Moisture  
Dew Point 6 °F    
Average Humidity 77    
Maximum Humidity 87    
Minimum Humidity 67    
Precipitation  
Precipitation T in 0.01 in 0.72 in (2006)
Month to date precipitation 0.63 0.47  
Year to date precipitation 14.90 17.83  
Snow  
Snow T in 0.40 in 10.40 in (1918)
Month to date snowfall 11.7 9.0  
Since 1 July snowfall 22.2 20.2  
Snow Depth 7.00 in    
Sea Level Pressure  
Sea Level Pressure 30.11 in    
Wind  
Wind Speed 8 mph (NNW)    
Max Wind Speed 21 mph    
Max Gust Speed 27 mph    
Visibility 10 miles    
Events Snow    
T = Trace of Precipitation, MM = Missing Value Source: NWS Daily Summary

Daily Weather History Graph

Daily Weather History Graph

Search for Another Location

Airport or City:

Trip Planner

Search our weather history database for the weather conditions in past years. The results will help you decide how hot, cold, wet, or windy it might be!

Date:

Astronomy

Dec. 30, 2012 Rise Set
Actual Time 8:27 AM CST 5:03 PM CST
Civil Twilight 7:52 AM CST 5:39 PM CST
Nautical Twilight 7:14 AM CST 6:17 PM CST
Astronomical Twilight 6:37 AM CST 6:54 PM CST
Moon 7:47 PM CST (12/30) 9:28 AM CST (12/30)
Length of Visible Light 9h 46m
Length of Day
8h 36m
Waning Gibbous, 95% of the Moon is Illuminated
Dec 30
Waning Gibbous
Jan 4
Last Quarter
Jan 11
New
Jan 18
First Quarter
Jan 26
Full

Hourly Weather History & Observations

Time (CST) Temp. Windchill Dew Point Humidity Pressure Visibility Wind Dir Wind Speed Gust Speed Precip Events Conditions
12:52 AM 3.0 °F -4.4 °F -0.9 °F 84% 30.11 in 10.0 mi East 3.5 mph - N/A   Clear
1:52 AM 3.9 °F -5.3 °F -0.0 °F 84% 30.10 in 10.0 mi NE 4.6 mph - N/A   Clear
2:52 AM -0.0 °F - -4.0 °F 83% 30.10 in 10.0 mi Calm Calm - N/A   Clear
3:52 AM -2.0 °F -10.1 °F -6.0 °F 83% 30.09 in 10.0 mi East 3.5 mph - N/A   Clear
4:52 AM -0.9 °F - -5.1 °F 83% 30.08 in 10.0 mi Calm Calm - N/A   Clear
5:52 AM -2.9 °F - -7.1 °F 82% 30.08 in 10.0 mi Calm Calm - N/A   Clear
6:52 AM 1.0 °F -6.7 °F -2.9 °F 83% 30.08 in 10.0 mi NNE 3.5 mph - N/A   Clear
7:52 AM -0.0 °F - -5.1 °F 79% 30.07 in 10.0 mi Calm Calm - N/A   Clear
8:52 AM 1.0 °F - -2.9 °F 83% 30.07 in 9.0 mi Calm Calm - N/A   Clear
9:52 AM 7.0 °F 0.1 °F 1.9 °F 80% 30.07 in 10.0 mi South 3.5 mph - N/A   Partly Cloudy
10:52 AM 15.1 °F 3.3 °F 8.1 °F 74% 30.07 in 10.0 mi West 9.2 mph - N/A   Mostly Cloudy
11:52 AM 19.0 °F 11.1 °F 10.9 °F 71% 30.07 in 10.0 mi WNW 5.8 mph - N/A   Mostly Cloudy
12:52 PM 21.9 °F 11.7 °F 15.1 °F 75% 30.04 in 10.0 mi NW 9.2 mph - 0.00 in Snow Light Snow
1:52 PM 24.1 °F 14.4 °F 18.0 °F 77% 30.03 in 10.0 mi NW 9.2 mph - 0.01 in   Overcast
2:52 PM 25.0 °F 11.7 °F 19.0 °F 78% 30.05 in 10.0 mi NW 17.3 mph - N/A   Mostly Cloudy
3:52 PM 24.1 °F 11.5 °F 18.0 °F 77% 30.08 in 10.0 mi NW 15.0 mph - N/A   Mostly Cloudy
4:52 PM 24.1 °F 13.1 °F 18.0 °F 77% 30.11 in 10.0 mi NW 11.5 mph - N/A   Overcast
5:52 PM 24.1 °F 10.6 °F 17.1 °F 75% 30.14 in 10.0 mi NNW 17.3 mph - N/A   Overcast
6:52 PM 23.0 °F 9.6 °F 15.1 °F 72% 30.16 in 10.0 mi NW 16.1 mph 24.2 mph N/A   Overcast
7:52 PM 19.9 °F 6.7 °F 12.9 °F 74% 30.19 in 10.0 mi NNW 13.8 mph - N/A   Overcast
8:52 PM 19.0 °F 7.5 °F 12.0 °F 74% 30.20 in 10.0 mi NNW 10.4 mph - N/A   Overcast
9:52 PM 19.0 °F 6.1 °F 12.0 °F 74% 30.21 in 10.0 mi NNW 12.7 mph - N/A   Overcast
10:52 PM 16.0 °F 2.9 °F 9.0 °F 74% 30.22 in 10.0 mi NNW 11.5 mph - 0.00 in   Overcast
11:52 PM 12.0 °F -1.3 °F 3.0 °F 67% 30.24 in 10.0 mi North 10.4 mph - N/A   Overcast